Location: Parc National du Mont-Orford
(45.3122°N, 72.2403°W)
Time: 19:36:19
(UTC-05:00)

N. Korean satellite - Visible Passes

Search period start: 21 January 2018 00:00
Search period end: 31 January 2018 00:00
Orbit: 458 x 515 km, 97.2° (Epoch: 20 January)

Date Brightness Start Highest point End Pass type
(mag) Time Alt. Az. Time Alt. Az. Time Alt. Az.
21 Jan 7.3 06:23:59 10° NNE 06:27:23 56° E 06:30:46 10° S visible
21 Jan 9.5 18:36:26 10° SW 18:39:02 19° W 18:41:36 10° NW visible
22 Jan 8.8 06:00:37 10° NE 06:03:38 27° E 06:06:38 10° SSE visible
22 Jan 8.3 18:11:56 10° SSW 18:15:14 35° W 18:18:31 10° NNW visible
23 Jan 9.8 05:37:47 10° NE 05:39:48 15° E 05:41:49 10° SE visible
23 Jan 6.8 17:47:57 10° S 17:51:31 71° WSW 17:55:03 10° NNW visible
24 Jan 6.4 06:46:24 10° N 06:49:51 71° WNW 06:53:18 10° SSW visible
24 Jan 6.6 17:24:23 10° SSE 17:27:52 55° ENE 17:31:19 10° N visible
25 Jan 7.3 06:22:46 10° NNE 06:26:10 54° E 06:29:34 10° S visible
25 Jan 9.5 18:35:15 10° SW 18:37:50 19° W 18:40:24 10° NW visible
26 Jan 8.9 05:59:24 10° NE 06:02:25 27° E 06:05:24 10° SSE visible
26 Jan 8.3 18:10:45 10° SSW 18:14:02 35° W 18:17:17 10° NNW visible
27 Jan 9.9 05:36:35 10° ENE 05:38:34 14° E 05:40:33 10° SE visible
27 Jan 6.7 17:46:47 10° S 17:50:17 73° WSW 17:53:48 10° NNW visible
28 Jan 6.6 17:23:12 10° SSE 17:26:38 53° ENE 17:30:03 10° N visible
28 Jan 10.3 19:00:10 10° W 19:00:28 10° W 19:00:45 10° W visible
29 Jan 7.4 06:21:30 10° NNE 06:24:55 53° E 06:28:21 10° S visible
29 Jan 9.5 18:34:00 10° SW 18:36:35 19° W 18:39:09 10° NW visible
30 Jan 9.0 05:58:09 10° NE 06:01:09 26° E 06:04:09 10° SSE visible
30 Jan 8.2 18:09:31 10° SSW 18:12:46 36° W 18:16:01 10° NNW visible
